Wetterdaten: Montag, 29.06.2015
Datum Zeit Temp. A. Feuchte A. Luftdruck Regen Wind Richtung Richtung Sonnenschein ET UV Solar Taupunkt Windchill Windben Empfang
29.06.2015 00:00 13,6 C 90 % 1021,6 hPa 0,0 l/m 0,0 km/h (0 Bft) NO 37 0 min 0,000 mm 0,0 UV-I 0 W/m 12,0 C 13,6 C 0,0 km/h (0 Bft) 0,00 %
29.06.2015 00:05 13,5 C 91 % 1021,5 hPa 0,0 l/m 0,0 km/h (0 Bft) NO 38 0 min 0,000 mm 0,0 UV-I 0 W/m 12,1 C 13,5 C 0,0 km/h (0 Bft) 0,00 %
29.06.2015 00:10 13,3 C 91 % 1021,7 hPa 0,0 l/m 0,0 km/h (0 Bft) O-NO 63 0 min 0,000 mm 0,0 UV-I 0 W/m 11,9 C 13,3 C 0,0 km/h (0 Bft) 0,00 %
29.06.2015 00:15 13,2 C 91 % 1021,7 hPa 0,0 l/m 0,0 km/h (0 Bft) NO 42 0 min 0,000 mm 0,0 UV-I 0 W/m 11,8 C 13,2 C 0,0 km/h (0 Bft) 0,00 %
29.06.2015 00:20 13,2 C 91 % 1021,6 hPa 0,0 l/m 0,0 km/h (0 Bft) NO 44 0 min 0,000 mm 0,0 UV-I 0 W/m 11,8 C 13,2 C 0,0 km/h (0 Bft) 0,00 %
29.06.2015 00:25 13,1 C 91 % 1021,5 hPa 0,0 l/m 0,0 km/h (0 Bft) N-NO 33 0 min 0,000 mm 0,0 UV-I 0 W/m 11,7 C 13,1 C 0,0 km/h (0 Bft) 0,00 %
29.06.2015 00:30 13,1 C 91 % 1021,6 hPa 0,0 l/m 0,0 km/h (0 Bft) NO 47 0 min 0,000 mm 0,0 UV-I 0 W/m 11,7 C 13,1 C 0,0 km/h (0 Bft) 0,00 %
29.06.2015 00:35 13,0 C 92 % 1021,6 hPa 0,0 l/m 0,0 km/h (0 Bft) NO 54 0 min 0,000 mm 0,0 UV-I 0 W/m 11,7 C 13,0 C 0,0 km/h (0 Bft) 0,00 %
29.06.2015 00:40 12,9 C 92 % 1021,5 hPa 0,0 l/m 0,0 km/h (0 Bft) NO 49 0 min 0,000 mm 0,0 UV-I 0 W/m 11,6 C 12,9 C 0,0 km/h (0 Bft) 0,00 %
29.06.2015 00:45 12,8 C 93 % 1021,6 hPa 0,0 l/m 0,0 km/h (0 Bft) N-NO 31 0 min 0,000 mm 0,0 UV-I 0 W/m 11,7 C 12,8 C 0,0 km/h (0 Bft) 0,00 %
29.06.2015 00:50 12,8 C 93 % 1021,5 hPa 0,0 l/m 0,0 km/h (0 Bft) N-NO 21 0 min 0,000 mm 0,0 UV-I 0 W/m 11,7 C 12,8 C 0,0 km/h (0 Bft) 0,00 %
29.06.2015 00:55 12,7 C 93 % 1021,5 hPa 0,0 l/m 0,0 km/h (0 Bft) NO 46 0 min 0,000 mm 0,0 UV-I 0 W/m 11,6 C 12,7 C 0,0 km/h (0 Bft) 0,00 %
29.06.2015 01:00 12,7 C 93 % 1021,5 hPa 0,0 l/m 0,0 km/h (0 Bft) N-NO 29 0 min 0,000 mm 0,0 UV-I 0 W/m 11,6 C 12,7 C 0,0 km/h (0 Bft) 0,00 %
29.06.2015 01:05 12,7 C 93 % 1021,6 hPa 0,0 l/m 0,0 km/h (0 Bft) O-NO 58 0 min 0,000 mm 0,0 UV-I 0 W/m 11,6 C 12,7 C 0,0 km/h (0 Bft) 0,00 %
29.06.2015 01:10 12,6 C 93 % 1021,3 hPa 0,0 l/m 0,0 km/h (0 Bft) NO 52 0 min 0,000 mm 0,0 UV-I 0 W/m 11,5 C 12,6 C 0,0 km/h (0 Bft) 0,00 %
29.06.2015 01:15 12,6 C 93 % 1021,4 hPa 0,0 l/m 0,0 km/h (0 Bft) NO 45 0 min 0,000 mm 0,0 UV-I 0 W/m 11,5 C 12,6 C 0,0 km/h (0 Bft) 0,00 %
29.06.2015 01:20 12,5 C 93 % 1021,2 hPa 0,0 l/m 0,0 km/h (0 Bft) N-NO 31 0 min 0,000 mm 0,0 UV-I 0 W/m 11,4 C 12,5 C 0,0 km/h (0 Bft) 0,00 %
29.06.2015 01:25 12,5 C 93 % 1021,3 hPa 0,0 l/m 0,0 km/h (0 Bft) N-NO 21 0 min 0,000 mm 0,0 UV-I 0 W/m 11,4 C 12,5 C 0,0 km/h (0 Bft) 0,00 %
29.06.2015 01:30 12,4 C 93 % 1021,1 hPa 0,0 l/m 0,0 km/h (0 Bft) NO 44 0 min 0,000 mm 0,0 UV-I 0 W/m 11,3 C 12,4 C 0,0 km/h (0 Bft) 0,00 %
29.06.2015 01:35 12,3 C 93 % 1021,1 hPa 0,0 l/m 0,0 km/h (0 Bft) NO 43 0 min 0,000 mm 0,0 UV-I 0 W/m 11,2 C 12,3 C 0,0 km/h (0 Bft) 0,00 %
29.06.2015 01:40 12,2 C 93 % 1021,2 hPa 0,0 l/m 0,0 km/h (0 Bft) NO 36 0 min 0,000 mm 0,0 UV-I 0 W/m 11,1 C 12,2 C 0,0 km/h (0 Bft) 0,00 %
29.06.2015 01:45 12,2 C 93 % 1021,0 hPa 0,0 l/m 0,0 km/h (0 Bft) NO 42 0 min 0,000 mm 0,0 UV-I 0 W/m 11,1 C 12,2 C 0,0 km/h (0 Bft) 0,00 %
29.06.2015 01:50 12,2 C 93 % 1021,0 hPa 0,0 l/m 0,0 km/h (0 Bft) NO 47 0 min 0,000 mm 0,0 UV-I 0 W/m 11,1 C 12,2 C 0,0 km/h (0 Bft) 0,00 %
29.06.2015 01:55 12,1 C 93 % 1020,9 hPa 0,0 l/m 0,0 km/h (0 Bft) NO 44 0 min 0,000 mm 0,0 UV-I 0 W/m 11,0 C 12,1 C 0,0 km/h (0 Bft) 0,00 %
29.06.2015 02:00 12,1 C 93 % 1021,1 hPa 0,0 l/m 0,0 km/h (0 Bft) NO 54 0 min 0,000 mm 0,0 UV-I 0 W/m 11,0 C 12,1 C 0,0 km/h (0 Bft) 0,00 %
29.06.2015 02:05 12,0 C 93 % 1020,9 hPa 0,0 l/m 0,0 km/h (0 Bft) NO 45 0 min 0,000 mm 0,0 UV-I 0 W/m 10,9 C 12,0 C 0,0 km/h (0 Bft) 0,00 %
29.06.2015 02:10 12,0 C 94 % 1021,3 hPa 0,0 l/m 0,0 km/h (0 Bft) NO 45 0 min 0,000 mm 0,0 UV-I 0 W/m 11,1 C 12,0 C 0,0 km/h (0 Bft) 0,00 %
29.06.2015 02:15 12,0 C 94 % 1021,3 hPa 0,0 l/m 0,0 km/h (0 Bft) O 98 0 min 0,000 mm 0,0 UV-I 0 W/m 11,1 C 12,0 C 0,0 km/h (0 Bft) 0,00 %
29.06.2015 02:20 12,0 C 94 % 1021,4 hPa 0,0 l/m 0,0 km/h (0 Bft) O 91 0 min 0,000 mm 0,0 UV-I 0 W/m 11,1 C 12,0 C 0,0 km/h (0 Bft) 0,00 %
29.06.2015 02:25 12,0 C 94 % 1021,3 hPa 0,0 l/m 0,0 km/h (0 Bft) NO 42 0 min 0,000 mm 0,0 UV-I 0 W/m 11,1 C 12,0 C 0,0 km/h (0 Bft) 0,00 %
29.06.2015 02:30 12,0 C 94 % 1021,3 hPa 0,0 l/m 1,8 km/h (1 Bft) O 82 0 min 0,000 mm 0,0 UV-I 0 W/m 11,1 C 12,0 C 4,0 km/h (1 Bft) 0,00 %
29.06.2015 02:35 12,0 C 94 % 1021,0 hPa 0,0 l/m 0,0 km/h (0 Bft) O-NO 68 0 min 0,000 mm 0,0 UV-I 0 W/m 11,1 C 12,0 C 0,0 km/h (0 Bft) 0,00 %
29.06.2015 02:40 12,0 C 94 % 1021,5 hPa 0,0 l/m 0,0 km/h (0 Bft) NO 45 0 min 0,000 mm 0,0 UV-I 0 W/m 11,1 C 12,0 C 0,0 km/h (0 Bft) 0,00 %
29.06.2015 02:45 12,0 C 94 % 1021,5 hPa 0,0 l/m 0,0 km/h (0 Bft) NO 48 0 min 0,000 mm 0,0 UV-I 0 W/m 11,1 C 12,0 C 0,0 km/h (0 Bft) 0,00 %
29.06.2015 02:50 12,0 C 94 % 1021,7 hPa 0,0 l/m 0,0 km/h (0 Bft) NO 45 0 min 0,000 mm 0,0 UV-I 0 W/m 11,1 C 12,0 C 0,0 km/h (0 Bft) 0,00 %
29.06.2015 02:55 12,0 C 94 % 1021,6 hPa 0,0 l/m 0,0 km/h (0 Bft) NO 44 0 min 0,000 mm 0,0 UV-I 0 W/m 11,1 C 12,0 C 0,0 km/h (0 Bft) 0,00 %
29.06.2015 03:00 12,0 C 94 % 1021,7 hPa 0,0 l/m 0,0 km/h (0 Bft) O-NO 61 0 min 0,000 mm 0,0 UV-I 0 W/m 11,1 C 12,0 C 0,0 km/h (0 Bft) 0,00 %
29.06.2015 03:05 12,0 C 95 % 1021,6 hPa 0,0 l/m 0,0 km/h (0 Bft) O-NO 72 0 min 0,000 mm 0,0 UV-I 0 W/m 11,2 C 12,0 C 0,0 km/h (0 Bft) 0,00 %
29.06.2015 03:10 12,1 C 95 % 1021,2 hPa 0,0 l/m 0,0 km/h (0 Bft) O-NO 64 0 min 0,000 mm 0,0 UV-I 0 W/m 11,3 C 12,1 C 0,0 km/h (0 Bft) 0,00 %
29.06.2015 03:15 12,2 C 94 % 1021,4 hPa 0,0 l/m 0,0 km/h (0 Bft) O-NO 78 0 min 0,000 mm 0,0 UV-I 0 W/m 11,3 C 12,2 C 0,0 km/h (0 Bft) 0,00 %
29.06.2015 03:20 12,2 C 94 % 1021,1 hPa 0,0 l/m 0,0 km/h (0 Bft) O 85 0 min 0,000 mm 0,0 UV-I 0 W/m 11,3 C 12,2 C 0,0 km/h (0 Bft) 0,00 %
29.06.2015 03:25 12,1 C 94 % 1021,4 hPa 0,0 l/m 0,0 km/h (0 Bft) O-SO 113 0 min 0,000 mm 0,0 UV-I 0 W/m 11,2 C 12,1 C 0,0 km/h (0 Bft) 0,00 %
29.06.2015 03:30 12,1 C 94 % 1021,2 hPa 0,0 l/m 0,0 km/h (0 Bft) O-NO 74 0 min 0,000 mm 0,0 UV-I 0 W/m 11,2 C 12,1 C 0,0 km/h (0 Bft) 0,00 %
29.06.2015 03:35 12,2 C 94 % 1021,3 hPa 0,0 l/m 0,0 km/h (0 Bft) O-NO 61 0 min 0,000 mm 0,0 UV-I 0 W/m 11,3 C 12,2 C 0,0 km/h (0 Bft) 0,00 %
29.06.2015 03:40 12,2 C 93 % 1021,3 hPa 0,0 l/m 0,0 km/h (0 Bft) NO 36 0 min 0,000 mm 0,0 UV-I 0 W/m 11,1 C 12,2 C 0,0 km/h (0 Bft) 0,00 %
29.06.2015 03:45 12,3 C 93 % 1021,2 hPa 0,0 l/m 0,0 km/h (0 Bft) NO 40 0 min 0,000 mm 0,0 UV-I 0 W/m 11,2 C 12,3 C 0,0 km/h (0 Bft) 0,00 %
29.06.2015 03:50 12,2 C 93 % 1021,2 hPa 0,0 l/m 0,0 km/h (0 Bft) NO 45 0 min 0,000 mm 0,0 UV-I 0 W/m 11,1 C 12,2 C 0,0 km/h (0 Bft) 0,00 %
29.06.2015 03:55 12,1 C 93 % 1021,1 hPa 0,0 l/m 0,0 km/h (0 Bft) N-NO 29 0 min 0,000 mm 0,0 UV-I 0 W/m 11,0 C 12,1 C 0,0 km/h (0 Bft) 0,00 %
29.06.2015 04:00 12,1 C 93 % 1021,0 hPa 0,0 l/m 0,0 km/h (0 Bft) NO 48 0 min 0,000 mm 0,0 UV-I 0 W/m 11,0 C 12,1 C 0,0 km/h (0 Bft) 0,00 %
29.06.2015 04:05 12,1 C 94 % 1021,0 hPa 0,0 l/m 0,0 km/h (0 Bft) NO 38 0 min 0,000 mm 0,0 UV-I 0 W/m 11,2 C 12,1 C 0,0 km/h (0 Bft) 0,00 %
29.06.2015 04:10 12,0 C 94 % 1021,1 hPa 0,0 l/m 0,0 km/h (0 Bft) NO 40 0 min 0,000 mm 0,0 UV-I 0 W/m 11,1 C 12,0 C 0,0 km/h (0 Bft) 0,00 %
29.06.2015 04:15 12,0 C 94 % 1021,1 hPa 0,0 l/m 0,0 km/h (0 Bft) NO 39 0 min 0,000 mm 0,0 UV-I 0 W/m 11,1 C 12,0 C 0,0 km/h (0 Bft) 0,00 %
29.06.2015 04:20 12,0 C 94 % 1021,1 hPa 0,0 l/m 0,0 km/h (0 Bft) NO 39 0 min 0,000 mm 0,0 UV-I 0 W/m 11,1 C 12,0 C 0,0 km/h (0 Bft) 0,00 %
29.06.2015 04:25 12,0 C 94 % 1021,4 hPa 0,0 l/m 0,0 km/h (0 Bft) NO 35 0 min 0,000 mm 0,0 UV-I 0 W/m 11,1 C 12,0 C 0,0 km/h (0 Bft) 0,00 %
29.06.2015 04:30 12,0 C 94 % 1021,3 hPa 0,0 l/m 0,0 km/h (0 Bft) NO 46 0 min 0,000 mm 0,0 UV-I 0 W/m 11,1 C 12,0 C 0,0 km/h (0 Bft) 0,00 %
29.06.2015 04:35 12,0 C 94 % 1021,4 hPa 0,0 l/m 0,0 km/h (0 Bft) NO 37 0 min 0,000 mm 0,0 UV-I 0 W/m 11,1 C 12,0 C 0,0 km/h (0 Bft) 0,00 %
29.06.2015 04:40 12,0 C 94 % 1021,1 hPa 0,0 l/m 0,0 km/h (0 Bft) NO 50 0 min 0,000 mm 0,0 UV-I 0 W/m 11,1 C 12,0 C 0,0 km/h (0 Bft) 0,00 %
29.06.2015 04:45 12,0 C 94 % 1021,3 hPa 0,0 l/m 0,0 km/h (0 Bft) NO 36 0 min 0,000 mm 0,0 UV-I 0 W/m 11,1 C 12,0 C 0,0 km/h (0 Bft) 0,00 %
29.06.2015 04:50 12,0 C 94 % 1021,4 hPa 0,0 l/m 0,0 km/h (0 Bft) NO 51 0 min 0,000 mm 0,0 UV-I 0 W/m 11,1 C 12,0 C 0,0 km/h (0 Bft) 0,00 %
29.06.2015 04:55 12,0 C 95 % 1021,4 hPa 0,0 l/m 0,0 km/h (0 Bft) NO 52 0 min 0,000 mm 0,0 UV-I 0 W/m 11,2 C 12,0 C 0,0 km/h (0 Bft) 0,00 %
29.06.2015 05:00 12,0 C 95 % 1021,5 hPa 0,0 l/m 0,0 km/h (0 Bft) NO 54 0 min 0,000 mm 0,0 UV-I 0 W/m 11,2 C 12,0 C 0,0 km/h (0 Bft) 0,00 %
29.06.2015 05:05 12,0 C 95 % 1021,5 hPa 0,0 l/m 0,0 km/h (0 Bft) NO 44 0 min 0,000 mm 0,0 UV-I 0 W/m 11,2 C 12,0 C 0,0 km/h (0 Bft) 0,00 %
29.06.2015 05:10 11,9 C 95 % 1021,5 hPa 0,0 l/m 0,0 km/h (0 Bft) NO 40 0 min 0,000 mm 0,0 UV-I 0 W/m 11,1 C 11,9 C 0,0 km/h (0 Bft) 0,00 %
29.06.2015 05:15 11,9 C 95 % 1021,4 hPa 0,0 l/m 0,0 km/h (0 Bft) NO 39 0 min 0,000 mm 0,0 UV-I 0 W/m 11,1 C 11,9 C 0,0 km/h (0 Bft) 0,00 %
29.06.2015 05:20 11,9 C 95 % 1021,4 hPa 0,0 l/m 0,0 km/h (0 Bft) NO 40 0 min 0,000 mm 0,0 UV-I 1 W/m 11,1 C 11,9 C 0,0 km/h (0 Bft) 0,00 %
29.06.2015 05:25 12,0 C 95 % 1021,5 hPa 0,0 l/m 0,0 km/h (0 Bft) NO 42 0 min 0,000 mm 0,0 UV-I 4 W/m 11,2 C 12,0 C 0,0 km/h (0 Bft) 0,00 %
29.06.2015 05:30 12,0 C 95 % 1021,3 hPa 0,0 l/m 0,0 km/h (0 Bft) NO 42 0 min 0,000 mm 0,0 UV-I 8 W/m 11,2 C 12,0 C 0,0 km/h (0 Bft) 0,00 %
29.06.2015 05:35 12,0 C 95 % 1021,3 hPa 0,0 l/m 0,0 km/h (0 Bft) NO 47 0 min 0,000 mm 0,0 UV-I 18 W/m 11,2 C 12,0 C 0,0 km/h (0 Bft) 0,00 %
29.06.2015 05:40 11,9 C 96 % 1021,4 hPa 0,0 l/m 0,0 km/h (0 Bft) NO 51 0 min 0,000 mm 0,0 UV-I 26 W/m 11,3 C 11,9 C 0,0 km/h (0 Bft) 0,00 %
29.06.2015 05:45 11,9 C 95 % 1021,5 hPa 0,0 l/m 0,0 km/h (0 Bft) NO 52 0 min 0,000 mm 0,0 UV-I 33 W/m 11,1 C 11,9 C 0,0 km/h (0 Bft) 0,00 %
29.06.2015 05:50 12,0 C 95 % 1021,4 hPa 0,0 l/m 0,0 km/h (0 Bft) NO 40 0 min 0,000 mm 0,0 UV-I 39 W/m 11,2 C 12,0 C 0,0 km/h (0 Bft) 0,00 %
29.06.2015 05:55 12,1 C 95 % 1021,4 hPa 0,0 l/m 0,0 km/h (0 Bft) NO 36 0 min 0,000 mm 0,0 UV-I 40 W/m 11,3 C 12,1 C 0,0 km/h (0 Bft) 0,00 %
29.06.2015 06:00 12,2 C 95 % 1021,5 hPa 0,0 l/m 0,0 km/h (0 Bft) NO 45 0 min 0,000 mm 0,0 UV-I 44 W/m 11,4 C 12,2 C 0,0 km/h (0 Bft) 0,00 %
29.06.2015 06:05 12,2 C 95 % 1021,6 hPa 0,0 l/m 0,0 km/h (0 Bft) NO 46 0 min 0,000 mm 0,0 UV-I 55 W/m 11,4 C 12,2 C 0,0 km/h (0 Bft) 0,00 %
29.06.2015 06:10 12,2 C 94 % 1021,5 hPa 0,0 l/m 0,0 km/h (0 Bft) N-NO 27 0 min 0,000 mm 0,0 UV-I 54 W/m 11,3 C 12,2 C 0,0 km/h (0 Bft) 0,00 %
29.06.2015 06:15 12,3 C 94 % 1021,6 hPa 0,0 l/m 0,0 km/h (0 Bft) NO 44 0 min 0,000 mm 0,0 UV-I 56 W/m 11,4 C 12,3 C 0,0 km/h (0 Bft) 0,00 %
29.06.2015 06:20 12,4 C 94 % 1021,8 hPa 0,0 l/m 0,0 km/h (0 Bft) N-NO 32 0 min 0,000 mm 0,0 UV-I 68 W/m 11,5 C 12,4 C 0,0 km/h (0 Bft) 0,00 %
29.06.2015 06:25 12,6 C 94 % 1021,8 hPa 0,0 l/m 0,0 km/h (0 Bft) N-NO 22 0 min 0,000 mm 0,0 UV-I 79 W/m 11,7 C 12,6 C 0,0 km/h (0 Bft) 0,00 %
29.06.2015 06:30 12,7 C 94 % 1021,8 hPa 0,0 l/m 0,0 km/h (0 Bft) N-NO 24 0 min 0,000 mm 0,0 UV-I 76 W/m 11,8 C 12,7 C 0,0 km/h (0 Bft) 0,00 %
29.06.2015 06:35 12,8 C 94 % 1021,6 hPa 0,0 l/m 0,0 km/h (0 Bft) NO 43 0 min 0,000 mm 0,0 UV-I 71 W/m 11,9 C 12,8 C 0,0 km/h (0 Bft) 0,00 %
29.06.2015 06:40 12,9 C 93 % 1021,7 hPa 0,0 l/m 0,0 km/h (0 Bft) NO 42 0 min 0,000 mm 0,0 UV-I 67 W/m 11,8 C 12,9 C 0,0 km/h (0 Bft) 0,00 %
29.06.2015 06:45 13,0 C 92 % 1021,6 hPa 0,0 l/m 0,0 km/h (0 Bft) NO 52 0 min 0,000 mm 0,0 UV-I 74 W/m 11,7 C 13,0 C 0,0 km/h (0 Bft) 0,00 %
29.06.2015 06:50 13,2 C 92 % 1021,5 hPa 0,0 l/m 0,0 km/h (0 Bft) NO 53 0 min 0,000 mm 0,0 UV-I 80 W/m 11,9 C 13,2 C 0,0 km/h (0 Bft) 0,00 %
29.06.2015 06:55 13,3 C 91 % 1021,7 hPa 0,0 l/m 0,0 km/h (0 Bft) O-NO 64 0 min 0,000 mm 1,0 UV-I 83 W/m 11,9 C 13,3 C 0,0 km/h (0 Bft) 0,00 %
29.06.2015 07:00 13,4 C 91 % 1021,7 hPa 0,0 l/m 0,0 km/h (0 Bft) NO 40 0 min 0,000 mm 1,0 UV-I 83 W/m 12,0 C 13,4 C 0,0 km/h (0 Bft) 0,00 %
29.06.2015 07:05 13,6 C 91 % 1021,6 hPa 0,0 l/m 0,0 km/h (0 Bft) N-NO 33 0 min 0,000 mm 1,0 UV-I 88 W/m 12,2 C 13,6 C 0,0 km/h (0 Bft) 0,00 %
29.06.2015 07:10 13,7 C 90 % 1021,6 hPa 0,0 l/m 0,0 km/h (0 Bft) NO 37 0 min 0,000 mm 1,0 UV-I 93 W/m 12,1 C 13,7 C 0,0 km/h (0 Bft) 0,00 %
29.06.2015 07:15 13,7 C 90 % 1021,8 hPa 0,0 l/m 0,0 km/h (0 Bft) NO 39 0 min 0,000 mm 1,0 UV-I 113 W/m 12,1 C 13,7 C 0,0 km/h (0 Bft) 0,00 %
29.06.2015 07:20 13,8 C 89 % 1021,7 hPa 0,0 l/m 0,0 km/h (0 Bft) N-NO 29 0 min 0,000 mm 1,0 UV-I 135 W/m 12,0 C 13,8 C 0,0 km/h (0 Bft) 0,00 %
29.06.2015 07:25 13,8 C 88 % 1021,7 hPa 0,0 l/m 0,0 km/h (0 Bft) N-NO 15 0 min 0,000 mm 1,0 UV-I 136 W/m 11,8 C 13,8 C 0,0 km/h (0 Bft) 0,00 %
29.06.2015 07:30 13,9 C 88 % 1021,7 hPa 0,0 l/m 0,0 km/h (0 Bft) NO 38 0 min 0,000 mm 1,0 UV-I 133 W/m 11,9 C 13,9 C 0,0 km/h (0 Bft) 0,00 %
29.06.2015 07:35 14,1 C 88 % 1021,7 hPa 0,0 l/m 0,0 km/h (0 Bft) N-NO 20 0 min 0,000 mm 1,0 UV-I 138 W/m 12,1 C 14,1 C 0,0 km/h (0 Bft) 0,00 %
29.06.2015 07:40 14,3 C 88 % 1021,8 hPa 0,0 l/m 0,0 km/h (0 Bft) N-NO 30 0 min 0,000 mm 1,0 UV-I 148 W/m 12,3 C 14,3 C 0,0 km/h (0 Bft) 0,00 %
29.06.2015 07:45 14,5 C 87 % 1021,6 hPa 0,0 l/m 0,0 km/h (0 Bft) NO 36 0 min 0,000 mm 1,0 UV-I 146 W/m 12,4 C 14,5 C 0,0 km/h (0 Bft) 0,00 %
29.06.2015 07:50 14,7 C 85 % 1021,8 hPa 0,0 l/m 0,0 km/h (0 Bft) NO 44 0 min 0,000 mm 1,0 UV-I 140 W/m 12,2 C 14,7 C 0,0 km/h (0 Bft) 0,00 %
29.06.2015 07:55 14,9 C 83 % 1021,6 hPa 0,0 l/m 0,0 km/h (0 Bft) NO 44 0 min 0,000 mm 1,0 UV-I 123 W/m 12,0 C 14,9 C 0,0 km/h (0 Bft) 0,00 %
29.06.2015 08:00 15,0 C 83 % 1021,7 hPa 0,0 l/m 0,0 km/h (0 Bft) NO 45 0 min 0,000 mm 1,0 UV-I 139 W/m 12,1 C 15,0 C 0,0 km/h (0 Bft) 0,00 %
29.06.2015 08:05 15,1 C 83 % 1021,8 hPa 0,0 l/m 0,0 km/h (0 Bft) NO 48 0 min 0,000 mm 1,0 UV-I 138 W/m 12,2 C 15,1 C 0,0 km/h (0 Bft) 0,00 %
29.06.2015 08:10 15,1 C 82 % 1021,7 hPa 0,0 l/m 0,0 km/h (0 Bft) NO 50 0 min 0,000 mm 1,0 UV-I 159 W/m 12,0 C 15,1 C 0,0 km/h (0 Bft) 0,00 %
29.06.2015 08:15 15,2 C 81 % 1021,7 hPa 0,0 l/m 0,0 km/h (0 Bft) N-NO 28 0 min 0,000 mm 1,0 UV-I 155 W/m 12,0 C 15,2 C 0,0 km/h (0 Bft) 0,00 %
29.06.2015 08:20 15,3 C 81 % 1021,8 hPa 0,0 l/m 0,0 km/h (0 Bft) N 351 0 min 0,000 mm 1,0 UV-I 148 W/m 12,1 C 15,3 C 0,0 km/h (0 Bft) 0,00 %
29.06.2015 08:25 15,4 C 81 % 1021,8 hPa 0,0 l/m 0,0 km/h (0 Bft) N-NO 27 0 min 0,000 mm 1,0 UV-I 139 W/m 12,2 C 15,4 C 0,0 km/h (0 Bft) 0,00 %
29.06.2015 08:30 15,6 C 82 % 1021,7 hPa 0,0 l/m 0,0 km/h (0 Bft) NO 34 0 min 0,000 mm 1,0 UV-I 114 W/m 12,5 C 15,6 C 0,0 km/h (0 Bft) 0,00 %
29.06.2015 08:35 15,7 C 81 % 1021,5 hPa 0,0 l/m 0,0 km/h (0 Bft) O-NO 68 0 min 0,000 mm 1,0 UV-I 95 W/m 12,4 C 15,7 C 0,0 km/h (0 Bft) 0,00 %
29.06.2015 08:40 15,6 C 81 % 1021,8 hPa 0,0 l/m 0,0 km/h (0 Bft) O-NO 58 0 min 0,000 mm 1,0 UV-I 91 W/m 12,3 C 15,6 C 0,0 km/h (0 Bft) 0,00 %
29.06.2015 08:45 15,6 C 81 % 1021,8 hPa 0,0 l/m 0,0 km/h (0 Bft) NO 39 0 min 0,000 mm 1,0 UV-I 99 W/m 12,3 C 15,6 C 0,0 km/h (0 Bft) 0,00 %
29.06.2015 08:50 15,5 C 81 % 1022,0 hPa 0,0 l/m 0,0 km/h (0 Bft) NO 53 0 min 0,000 mm 1,0 UV-I 116 W/m 12,3 C 15,5 C 0,0 km/h (0 Bft) 0,00 %
29.06.2015 08:55 15,5 C 81 % 1022,0 hPa 0,0 l/m 0,0 km/h (0 Bft) N-NW 344 0 min 0,000 mm 1,0 UV-I 121 W/m 12,3 C 15,5 C 0,0 km/h (0 Bft) 0,00 %
29.06.2015 09:00 15,5 C 82 % 1021,9 hPa 0,0 l/m 0,0 km/h (0 Bft) NO 43 0 min 0,000 mm 1,0 UV-I 144 W/m 12,4 C 15,5 C 0,0 km/h (0 Bft) 0,00 %
29.06.2015 09:05 15,6 C 81 % 1021,7 hPa 0,0 l/m 0,0 km/h (0 Bft) NO 45 0 min 0,000 mm 1,0 UV-I 166 W/m 12,3 C 15,6 C 0,0 km/h (0 Bft) 0,00 %
29.06.2015 09:10 15,7 C 81 % 1021,9 hPa 0,0 l/m 0,0 km/h (0 Bft) NO 43 0 min 0,000 mm 1,0 UV-I 189 W/m 12,4 C 15,7 C 0,0 km/h (0 Bft) 0,00 %
29.06.2015 09:15 15,8 C 79 % 1021,9 hPa 0,0 l/m 0,0 km/h (0 Bft) NO 36 0 min 0,000 mm 1,0 UV-I 209 W/m 12,2 C 15,8 C 0,0 km/h (0 Bft) 0,00 %
29.06.2015 09:20 16,0 C 79 % 1021,9 hPa 0,0 l/m 0,0 km/h (0 Bft) NO 41 0 min 0,000 mm 1,0 UV-I 233 W/m 12,4 C 16,0 C 0,0 km/h (0 Bft) 0,00 %
29.06.2015 09:25 16,2 C 79 % 1022,1 hPa 0,0 l/m 0,0 km/h (0 Bft) NO 46 0 min 0,000 mm 1,0 UV-I 242 W/m 12,6 C 16,2 C 0,0 km/h (0 Bft) 0,00 %
29.06.2015 09:30 16,4 C 78 % 1022,1 hPa 0,0 l/m 0,0 km/h (0 Bft) N 351 0 min 0,000 mm 1,0 UV-I 232 W/m 12,6 C 16,4 C 0,0 km/h (0 Bft) 0,00 %
29.06.2015 09:35 16,6 C 78 % 1022,0 hPa 0,0 l/m 0,0 km/h (0 Bft) N-NW 339 0 min 0,000 mm 1,0 UV-I 215 W/m 12,7 C 16,6 C 0,0 km/h (0 Bft) 0,00 %
29.06.2015 09:40 16,6 C 78 % 1022,0 hPa 0,0 l/m 0,0 km/h (0 Bft) N 9 0 min 0,000 mm 1,0 UV-I 227 W/m 12,7 C 16,6 C 0,0 km/h (0 Bft) 0,00 %
29.06.2015 09:45 16,6 C 77 % 1022,1 hPa 0,0 l/m 0,0 km/h (0 Bft) N 352 0 min 0,000 mm 1,0 UV-I 262 W/m 12,5 C 16,6 C 0,0 km/h (0 Bft) 0,00 %
29.06.2015 09:50 16,6 C 76 % 1022,2 hPa 0,0 l/m 0,0 km/h (0 Bft) NO 36 0 min 0,000 mm 1,0 UV-I 300 W/m 12,3 C 16,6 C 0,0 km/h (0 Bft) 0,00 %
29.06.2015 09:55 16,7 C 76 % 1022,1 hPa 0,0 l/m 0,0 km/h (0 Bft) NO 40 0 min 0,000 mm 2,0 UV-I 348 W/m 12,4 C 16,7 C 0,0 km/h (0 Bft) 0,00 %
29.06.2015 10:00 16,8 C 75 % 1022,1 hPa 0,0 l/m 0,0 km/h (0 Bft) NO 47 0 min 0,000 mm 2,0 UV-I 372 W/m 12,3 C 16,8 C 0,0 km/h (0 Bft) 0,00 %
29.06.2015 10:05 16,9 C 76 % 1021,8 hPa 0,0 l/m 0,0 km/h (0 Bft) O-NO 65 5 min 0,000 mm 2,0 UV-I 445 W/m 12,6 C 16,9 C 0,0 km/h (0 Bft) 0,00 %
29.06.2015 10:10 17,2 C 75 % 1022,0 hPa 0,0 l/m 1,4 km/h (1 Bft) NO 45 0 min 0,000 mm 2,0 UV-I 329 W/m 12,7 C 17,2 C 4,0 km/h (1 Bft) 0,00 %
29.06.2015 10:15 17,6 C 74 % 1022,1 hPa 0,0 l/m 0,0 km/h (0 Bft) NO 42 5 min 0,000 mm 2,0 UV-I 696 W/m 12,9 C 17,6 C 0,0 km/h (0 Bft) 0,00 %
29.06.2015 10:20 17,8 C 72 % 1021,7 hPa 0,0 l/m 0,0 km/h (0 Bft) N-NO 29 5 min 0,000 mm 2,0 UV-I 709 W/m 12,7 C 17,8 C 0,0 km/h (0 Bft) 0,00 %
29.06.2015 10:25 18,1 C 68 % 1021,8 hPa 0,0 l/m 0,0 km/h (0 Bft) O 94 5 min 0,000 mm 3,0 UV-I 501 W/m 12,1 C 18,1 C 0,0 km/h (0 Bft) 0,00 %
29.06.2015 10:30 18,8 C 68 % 1021,6 hPa 0,0 l/m 0,4 km/h (0 Bft) NO 35 5 min 0,000 mm 3,0 UV-I 682 W/m 12,8 C 18,8 C 4,0 km/h (1 Bft) 0,00 %
29.06.2015 10:35 19,4 C 63 % 1021,4 hPa 0,0 l/m 0,4 km/h (0 Bft) O-NO 70 5 min 0,000 mm 3,0 UV-I 668 W/m 12,2 C 19,4 C 4,0 km/h (1 Bft) 0,00 %
29.06.2015 10:40 19,5 C 62 % 1021,3 hPa 0,0 l/m 2,2 km/h (1 Bft) N-NW 340 5 min 0,000 mm 3,0 UV-I 736 W/m 12,0 C 19,5 C 4,0 km/h (1 Bft) 0,00 %
29.06.2015 10:45 19,8 C 60 % 1021,3 hPa 0,0 l/m 0,0 km/h (0 Bft) N 352 5 min 0,000 mm 4,0 UV-I 814 W/m 11,8 C 19,8 C 0,0 km/h (0 Bft) 0,00 %
29.06.2015 10:50 20,2 C 61 % 1021,2 hPa 0,0 l/m 0,0 km/h (0 Bft) NO 34 5 min 0,000 mm 4,0 UV-I 521 W/m 12,4 C 20,2 C 0,0 km/h (0 Bft) 0,00 %
29.06.2015 10:55 20,8 C 57 % 1021,3 hPa 0,0 l/m 0,0 km/h (0 Bft) N-NW 340 5 min 0,000 mm 4,0 UV-I 468 W/m 12,0 C 20,8 C 0,0 km/h (0 Bft) 0,00 %
29.06.2015 11:00 21,1 C 58 % 1021,1 hPa 0,0 l/m 0,0 km/h (0 Bft) N-NO 22 5 min 0,000 mm 4,0 UV-I 804 W/m 12,5 C 21,1 C 0,0 km/h (0 Bft) 0,00 %
29.06.2015 11:05 21,2 C 57 % 1021,1 hPa 0,0 l/m 0,0 km/h (0 Bft) NO 36 5 min 0,000 mm 4,0 UV-I 786 W/m 12,3 C 21,2 C 0,0 km/h (0 Bft) 0,00 %
29.06.2015 11:10 21,3 C 58 % 1020,9 hPa 0,0 l/m 0,0 km/h (0 Bft) NO 41 5 min 0,000 mm 4,0 UV-I 725 W/m 12,7 C 21,3 C 0,0 km/h (0 Bft) 0,00 %
29.06.2015 11:15 21,6 C 56 % 1020,9 hPa 0,0 l/m 0,0 km/h (0 Bft) N-NW 339 5 min 0,000 mm 4,0 UV-I 567 W/m 12,4 C 21,6 C 0,0 km/h (0 Bft) 0,00 %
29.06.2015 11:20 22,1 C 53 % 1020,8 hPa 0,0 l/m 0,0 km/h (0 Bft) NO 46 5 min 0,000 mm 3,0 UV-I 870 W/m 12,1 C 22,1 C 0,0 km/h (0 Bft) 0,00 %
29.06.2015 11:25 22,4 C 55 % 1020,6 hPa 0,0 l/m 0,0 km/h (0 Bft) NO 42 5 min 0,000 mm 5,0 UV-I 530 W/m 12,9 C 22,4 C 0,0 km/h (0 Bft) 0,00 %
29.06.2015 11:30 22,6 C 54 % 1020,6 hPa 0,0 l/m 0,0 km/h (0 Bft) O-NO 60 5 min 0,000 mm 3,0 UV-I 581 W/m 12,8 C 22,6 C 0,0 km/h (0 Bft) 0,00 %
29.06.2015 11:35 22,5 C 54 % 1020,7 hPa 0,0 l/m 0,0 km/h (0 Bft) NO 42 5 min 0,000 mm 3,0 UV-I 587 W/m 12,7 C 22,5 C 0,0 km/h (0 Bft) 0,00 %
29.06.2015 11:40 22,4 C 54 % 1020,7 hPa 0,0 l/m 0,4 km/h (0 Bft) N 350 5 min 0,000 mm 4,0 UV-I 869 W/m 12,6 C 22,4 C 4,0 km/h (1 Bft) 0,00 %
29.06.2015 11:45 22,5 C 53 % 1020,5 hPa 0,0 l/m 0,0 km/h (0 Bft) N-NO 25 5 min 0,000 mm 5,0 UV-I 612 W/m 12,4 C 22,5 C 0,0 km/h (0 Bft) 0,00 %
29.06.2015 11:50 22,7 C 55 % 1020,5 hPa 0,0 l/m 0,0 km/h (0 Bft) NO 35 5 min 0,000 mm 4,0 UV-I 803 W/m 13,2 C 22,7 C 0,0 km/h (0 Bft) 0,00 %
29.06.2015 11:55 23,0 C 51 % 1020,3 hPa 0,0 l/m 4,7 km/h (1 Bft) W-NW 300 5 min 0,000 mm 4,0 UV-I 486 W/m 12,3 C 23,0 C 7,9 km/h (2 Bft) 0,00 %
29.06.2015 12:00 23,1 C 51 % 1020,4 hPa 0,0 l/m 0,0 km/h (0 Bft) N 353 5 min 0,000 mm 3,0 UV-I 1006 W/m 12,4 C 23,1 C 0,0 km/h (0 Bft) 0,00 %
29.06.2015 12:05 22,9 C 51 % 1020,4 hPa 0,0 l/m 0,0 km/h (0 Bft) NO 45 5 min 0,000 mm 4,0 UV-I 715 W/m 12,2 C 22,9 C 0,0 km/h (0 Bft) 0,00 %
29.06.2015 12:10 22,7 C 53 % 1020,6 hPa 0,0 l/m 0,4 km/h (0 Bft) NO 36 0 min 0,000 mm 5,0 UV-I 415 W/m 12,6 C 22,7 C 4,0 km/h (1 Bft) 0,00 %
29.06.2015 12:15 22,9 C 47 % 1020,3 hPa 0,0 l/m 0,4 km/h (0 Bft) O-SO 109 0 min 0,000 mm 2,0 UV-I 409 W/m 11,0 C 22,9 C 4,0 km/h (1 Bft) 0,00 %
29.06.2015 12:20 22,8 C 51 % 1020,4 hPa 0,0 l/m 0,0 km/h (0 Bft) O-NO 61 5 min 0,000 mm 2,0 UV-I 608 W/m 12,1 C 22,8 C 0,0 km/h (0 Bft) 0,00 %
29.06.2015 12:25 22,5 C 52 % 1020,3 hPa 0,0 l/m 0,0 km/h (0 Bft) NO 50 5 min 0,000 mm 2,0 UV-I 682 W/m 12,1 C 22,5 C 0,0 km/h (0 Bft) 0,00 %
29.06.2015 12:30 22,2 C 52 % 1020,4 hPa 0,0 l/m 0,0 km/h (0 Bft) N-NO 29 5 min 0,000 mm 4,0 UV-I 977 W/m 11,9 C 22,2 C 0,0 km/h (0 Bft) 0,00 %
29.06.2015 12:35 22,4 C 48 % 1020,2 hPa 0,0 l/m 0,0 km/h (0 Bft) N 351 5 min 0,000 mm 6,0 UV-I 639 W/m 10,8 C 22,4 C 0,0 km/h (0 Bft) 0,00 %
29.06.2015 12:40 22,7 C 47 % 1020,1 hPa 0,0 l/m 0,0 km/h (0 Bft) NO 36 5 min 0,000 mm 5,0 UV-I 742 W/m 10,8 C 22,7 C 0,0 km/h (0 Bft) 0,00 %
29.06.2015 12:45 23,2 C 45 % 1020,0 hPa 0,0 l/m 0,0 km/h (0 Bft) NO 44 5 min 0,000 mm 4,0 UV-I 517 W/m 10,6 C 23,2 C 0,0 km/h (0 Bft) 0,00 %
29.06.2015 12:50 23,4 C 50 % 1019,9 hPa 0,0 l/m 2,9 km/h (1 Bft) N-NW 347 5 min 0,000 mm 6,0 UV-I 988 W/m 12,4 C 23,4 C 4,0 km/h (1 Bft) 0,00 %
29.06.2015 12:55 23,5 C 44 % 1020,0 hPa 0,0 l/m 0,7 km/h (0 Bft) N 353 5 min 0,000 mm 6,0 UV-I 1100 W/m 10,5 C 23,5 C 4,0 km/h (1 Bft) 0,00 %
29.06.2015 13:00 23,4 C 45 % 1019,9 hPa 0,0 l/m 1,4 km/h (1 Bft) N-NW 346 5 min 0,000 mm 5,0 UV-I 845 W/m 10,8 C 23,4 C 4,0 km/h (1 Bft) 0,00 %
29.06.2015 13:05 23,4 C 49 % 1019,9 hPa 0,0 l/m 0,0 km/h (0 Bft) NO 36 5 min 0,000 mm 5,0 UV-I 492 W/m 12,1 C 23,4 C 0,0 km/h (0 Bft) 0,00 %
29.06.2015 13:10 23,4 C 48 % 1019,9 hPa 0,0 l/m 0,0 km/h (0 Bft) NO 46 5 min 0,000 mm 3,0 UV-I 931 W/m 11,8 C 23,4 C 0,0 km/h (0 Bft) 0,00 %
29.06.2015 13:15 23,0 C 52 % 1019,9 hPa 0,0 l/m 0,7 km/h (0 Bft) N 354 5 min 0,000 mm 5,0 UV-I 976 W/m 12,6 C 23,0 C 4,0 km/h (1 Bft) 0,00 %
29.06.2015 13:20 22,8 C 49 % 1019,9 hPa 0,0 l/m 0,0 km/h (0 Bft) O-NO 57 5 min 0,000 mm 5,0 UV-I 893 W/m 11,5 C 22,8 C 0,0 km/h (0 Bft) 0,00 %
29.06.2015 13:25 23,0 C 49 % 1019,8 hPa 0,0 l/m 0,0 km/h (0 Bft) N-NO 31 5 min 0,000 mm 6,0 UV-I 902 W/m 11,7 C 23,0 C 0,0 km/h (0 Bft) 0,00 %
29.06.2015 13:30 23,4 C 45 % 1019,7 hPa 0,0 l/m 0,0 km/h (0 Bft) O-NO 65 5 min 0,000 mm 5,0 UV-I 861 W/m 10,8 C 23,4 C 0,0 km/h (0 Bft) 0,00 %
29.06.2015 13:35 23,8 C 46 % 1019,7 hPa 0,0 l/m 0,0 km/h (0 Bft) O-NO 59 5 min 0,000 mm 5,0 UV-I 924 W/m 11,5 C 23,8 C 0,0 km/h (0 Bft) 0,00 %
29.06.2015 13:40 23,7 C 47 % 1019,7 hPa 0,0 l/m 0,4 km/h (0 Bft) NO 36 5 min 0,000 mm 5,0 UV-I 1019 W/m 11,7 C 23,7 C 4,0 km/h (1 Bft) 0,00 %
29.06.2015 13:45 23,4 C 49 % 1019,6 hPa 0,0 l/m 0,0 km/h (0 Bft) NO 38 5 min 0,000 mm 5,0 UV-I 889 W/m 12,1 C 23,4 C 0,0 km/h (0 Bft) 0,00 %
29.06.2015 13:50 23,6 C 47 % 1019,5 hPa 0,0 l/m 5,4 km/h (1 Bft) W-NW 298 5 min 0,000 mm 5,0 UV-I 603 W/m 11,6 C 23,6 C 7,9 km/h (2 Bft) 0,00 %
29.06.2015 13:55 24,1 C 44 % 1019,6 hPa 0,0 l/m 0,0 km/h (0 Bft) N-NO 28 5 min 0,000 mm 5,0 UV-I 550 W/m 11,1 C 24,1 C 0,0 km/h (0 Bft) 0,00 %
29.06.2015 14:00 24,5 C 41 % 1019,3 hPa 0,0 l/m 1,4 km/h (1 Bft) NW 321 5 min 0,000 mm 4,0 UV-I 502 W/m 10,4 C 24,5 C 4,0 km/h (1 Bft) 0,00 %
29.06.2015 14:05 24,5 C 42 % 1019,4 hPa 0,0 l/m 0,4 km/h (0 Bft) W 281 5 min 0,000 mm 4,0 UV-I 785 W/m 10,7 C 24,5 C 4,0 km/h (1 Bft) 0,00 %
29.06.2015 14:10 24,4 C 42 % 1019,3 hPa 0,0 l/m 4,3 km/h (1 Bft) W-SW 249 5 min 0,000 mm 5,0 UV-I 993 W/m 10,6 C 24,4 C 7,9 km/h (2 Bft) 0,00 %
29.06.2015 14:15 24,3 C 44 % 1019,3 hPa 0,0 l/m 0,0 km/h (0 Bft) N-NW 343 0 min 0,000 mm 3,0 UV-I 402 W/m 11,3 C 24,3 C 0,0 km/h (0 Bft) 0,00 %
29.06.2015 14:20 24,2 C 40 % 1019,2 hPa 0,0 l/m 0,0 km/h (0 Bft) N-NO 26 5 min 0,000 mm 4,0 UV-I 793 W/m 9,7 C 24,2 C 0,0 km/h (0 Bft) 0,00 %
29.06.2015 14:25 24,1 C 42 % 1019,3 hPa 0,0 l/m 0,7 km/h (0 Bft) O-NO 67 5 min 0,000 mm 6,0 UV-I 608 W/m 10,4 C 24,1 C 4,0 km/h (1 Bft) 0,00 %
29.06.2015 14:30 23,9 C 44 % 1019,2 hPa 0,0 l/m 0,0 km/h (0 Bft) NO 40 5 min 0,000 mm 4,0 UV-I 1004 W/m 10,9 C 23,9 C 0,0 km/h (0 Bft) 0,00 %
29.06.2015 14:35 23,9 C 44 % 1019,2 hPa 0,0 l/m 0,4 km/h (0 Bft) NW 305 5 min 0,000 mm 6,0 UV-I 490 W/m 10,9 C 23,9 C 4,0 km/h (1 Bft) 0,00 %
29.06.2015 14:40 24,1 C 46 % 1019,1 hPa 0,0 l/m 1,4 km/h (1 Bft) N-NO 26 5 min 0,000 mm 4,0 UV-I 505 W/m 11,7 C 24,1 C 4,0 km/h (1 Bft) 0,00 %
29.06.2015 14:45 24,2 C 43 % 1019,0 hPa 0,0 l/m 0,7 km/h (0 Bft) O 94 5 min 0,000 mm 2,0 UV-I 995 W/m 10,8 C 24,2 C 4,0 km/h (1 Bft) 0,00 %
29.06.2015 14:50 24,0 C 44 % 1019,0 hPa 0,0 l/m 0,7 km/h (0 Bft) O-SO 102 5 min 0,000 mm 4,0 UV-I 987 W/m 11,0 C 24,0 C 4,0 km/h (1 Bft) 0,00 %
29.06.2015 14:55 24,0 C 44 % 1019,0 hPa 0,0 l/m 0,4 km/h (0 Bft) N-NO 30 5 min 0,000 mm 5,0 UV-I 960 W/m 11,0 C 24,0 C 4,0 km/h (1 Bft) 0,00 %
29.06.2015 15:00 24,4 C 42 % 1018,8 hPa 0,0 l/m 0,0 km/h (0 Bft) N-NW 343 5 min 0,000 mm 5,0 UV-I 986 W/m 10,6 C 24,4 C 0,0 km/h (0 Bft) 0,00 %
29.06.2015 15:05 24,7 C 40 % 1018,6 hPa 0,0 l/m 0,0 km/h (0 Bft) NO 39 5 min 0,000 mm 5,0 UV-I 959 W/m 10,2 C 24,7 C 0,0 km/h (0 Bft) 0,00 %
29.06.2015 15:10 24,9 C 38 % 1018,7 hPa 0,0 l/m 3,2 km/h (1 Bft) W-SW 256 5 min 0,000 mm 5,0 UV-I 995 W/m 9,6 C 24,9 C 7,9 km/h (2 Bft) 0,00 %
29.06.2015 15:15 25,3 C 40 % 1018,7 hPa 0,0 l/m 2,9 km/h (1 Bft) W-SW 256 5 min 0,000 mm 4,0 UV-I 878 W/m 10,7 C 25,3 C 4,0 km/h (1 Bft) 0,00 %
29.06.2015 15:20 25,6 C 38 % 1018,6 hPa 0,0 l/m 0,0 km/h (0 Bft) N-NO 27 5 min 0,000 mm 5,0 UV-I 948 W/m 10,2 C 25,6 C 0,0 km/h (0 Bft) 0,00 %
29.06.2015 15:25 25,7 C 40 % 1018,3 hPa 0,0 l/m 0,0 km/h (0 Bft) NO 42 5 min 0,000 mm 5,0 UV-I 1010 W/m 11,1 C 25,7 C 0,0 km/h (0 Bft) 0,00 %
29.06.2015 15:30 25,4 C 40 % 1018,4 hPa 0,0 l/m 0,0 km/h (0 Bft) N-NW 348 5 min 0,000 mm 4,0 UV-I 972 W/m 10,8 C 25,4 C 0,0 km/h (0 Bft) 0,00 %
29.06.2015 15:35 25,4 C 41 % 1018,5 hPa 0,0 l/m 0,0 km/h (0 Bft) NO 47 5 min 0,000 mm 4,0 UV-I 960 W/m 11,2 C 25,4 C 0,0 km/h (0 Bft) 0,00 %
29.06.2015 15:40 25,5 C 38 % 1018,3 hPa 0,0 l/m 0,0 km/h (0 Bft) N-NO 24 5 min 0,000 mm 4,0 UV-I 949 W/m 10,1 C 25,5 C 0,0 km/h (0 Bft) 0,00 %
29.06.2015 15:45 25,7 C 38 % 1018,3 hPa 0,0 l/m 0,7 km/h (0 Bft) NO 49 5 min 0,000 mm 4,0 UV-I 931 W/m 10,3 C 25,7 C 4,0 km/h (1 Bft) 0,00 %
29.06.2015 15:50 25,8 C 38 % 1018,4 hPa 0,0 l/m 2,9 km/h (1 Bft) N-NO 32 5 min 0,000 mm 4,0 UV-I 960 W/m 10,4 C 25,8 C 7,9 km/h (2 Bft) 0,00 %
29.06.2015 15:55 25,8 C 39 % 1018,2 hPa 0,0 l/m 0,0 km/h (0 Bft) NW 318 5 min 0,000 mm 4,0 UV-I 969 W/m 10,8 C 25,8 C 0,0 km/h (0 Bft) 0,00 %
29.06.2015 16:00 25,8 C 40 % 1018,3 hPa 0,0 l/m 0,0 km/h (0 Bft) NO 41 5 min 0,000 mm 4,0 UV-I 786 W/m 11,2 C 25,8 C 0,0 km/h (0 Bft) 0,00 %
29.06.2015 16:05 25,8 C 37 % 1018,3 hPa 0,0 l/m 0,0 km/h (0 Bft) N-NO 23 5 min 0,000 mm 4,0 UV-I 968 W/m 10,0 C 25,8 C 0,0 km/h (0 Bft) 0,00 %
29.06.2015 16:10 25,9 C 37 % 1018,3 hPa 0,0 l/m 0,4 km/h (0 Bft) SO 143 5 min 0,000 mm 4,0 UV-I 987 W/m 10,1 C 25,9 C 4,0 km/h (1 Bft) 0,00 %
29.06.2015 16:15 25,9 C 44 % 1018,2 hPa 0,0 l/m 0,7 km/h (0 Bft) W 271 5 min 0,000 mm 4,0 UV-I 764 W/m 12,7 C 25,9 C 4,0 km/h (1 Bft) 0,00 %
29.06.2015 16:20 25,8 C 36 % 1018,2 hPa 0,0 l/m 3,2 km/h (1 Bft) W-NW 285 5 min 0,000 mm 4,0 UV-I 478 W/m 9,6 C 25,8 C 4,0 km/h (1 Bft) 0,00 %
29.06.2015 16:25 25,9 C 38 % 1018,0 hPa 0,0 l/m 0,0 km/h (0 Bft) O 90 5 min 0,000 mm 3,0 UV-I 932 W/m 10,5 C 25,9 C 0,0 km/h (0 Bft) 0,00 %
29.06.2015 16:30 25,9 C 40 % 1018,2 hPa 0,0 l/m 0,0 km/h (0 Bft) N-NO 25 5 min 0,000 mm 2,0 UV-I 889 W/m 11,3 C 25,9 C 0,0 km/h (0 Bft) 0,00 %
29.06.2015 16:35 25,7 C 39 % 1018,1 hPa 0,0 l/m 0,0 km/h (0 Bft) NW 308 5 min 0,000 mm 3,0 UV-I 678 W/m 10,7 C 25,7 C 0,0 km/h (0 Bft) 0,00 %
29.06.2015 16:40 25,8 C 39 % 1018,1 hPa 0,0 l/m 0,4 km/h (0 Bft) N-NO 30 5 min 0,000 mm 3,0 UV-I 882 W/m 10,8 C 25,8 C 4,0 km/h (1 Bft) 0,00 %
29.06.2015 16:45 25,7 C 39 % 1018,1 hPa 0,0 l/m 0,0 km/h (0 Bft) NW 324 5 min 0,000 mm 3,0 UV-I 542 W/m 10,7 C 25,7 C 0,0 km/h (0 Bft) 0,00 %
29.06.2015 16:50 25,4 C 43 % 1018,3 hPa 0,0 l/m 0,0 km/h (0 Bft) NO 34 5 min 0,000 mm 3,0 UV-I 799 W/m 11,9 C 25,4 C 0,0 km/h (0 Bft) 0,00 %
29.06.2015 16:55 25,3 C 42 % 1018,1 hPa 0,0 l/m 0,4 km/h (0 Bft) NO 54 5 min 0,000 mm 3,0 UV-I 885 W/m 11,5 C 25,3 C 4,0 km/h (1 Bft) 0,00 %
29.06.2015 17:00 25,4 C 42 % 1017,9 hPa 0,0 l/m 0,0 km/h (0 Bft) N 10 5 min 0,000 mm 3,0 UV-I 908 W/m 11,5 C 25,4 C 0,0 km/h (0 Bft) 0,00 %
29.06.2015 17:05 25,7 C 39 % 1017,9 hPa 0,0 l/m 0,7 km/h (0 Bft) O 80 0 min 0,000 mm 3,0 UV-I 259 W/m 10,7 C 25,7 C 4,0 km/h (1 Bft) 0,00 %
29.06.2015 17:10 25,9 C 42 % 1017,7 hPa 0,0 l/m 1,8 km/h (1 Bft) NO 38 5 min 0,000 mm 3,0 UV-I 375 W/m 12,0 C 25,9 C 4,0 km/h (1 Bft) 0,00 %
29.06.2015 17:15 25,9 C 38 % 1017,6 hPa 0,0 l/m 0,7 km/h (0 Bft) N-NO 22 5 min 0,000 mm 1,0 UV-I 828 W/m 10,5 C 25,9 C 4,0 km/h (1 Bft) 0,00 %
29.06.2015 17:20 26,0 C 40 % 1017,5 hPa 0,0 l/m 1,4 km/h (1 Bft) N-NW 341 5 min 0,000 mm 2,0 UV-I 925 W/m 11,3 C 26,0 C 4,0 km/h (1 Bft) 0,00 %
29.06.2015 17:25 25,9 C 40 % 1017,6 hPa 0,0 l/m 0,0 km/h (0 Bft) N 2 5 min 0,000 mm 2,0 UV-I 869 W/m 11,3 C 25,9 C 0,0 km/h (0 Bft) 0,00 %
29.06.2015 17:30 25,8 C 40 % 1017,8 hPa 0,0 l/m 0,4 km/h (0 Bft) N 349 5 min 0,000 mm 2,0 UV-I 806 W/m 11,2 C 25,8 C 4,0 km/h (1 Bft) 0,00 %
29.06.2015 17:35 25,8 C 40 % 1017,6 hPa 0,0 l/m 0,0 km/h (0 Bft) N-NO 32 5 min 0,000 mm 2,0 UV-I 826 W/m 11,2 C 25,8 C 0,0 km/h (0 Bft) 0,00 %
29.06.2015 17:40 25,9 C 39 % 1017,7 hPa 0,0 l/m 0,0 km/h (0 Bft) NO 49 5 min 0,000 mm 1,0 UV-I 769 W/m 10,9 C 25,9 C 0,0 km/h (0 Bft) 0,00 %
29.06.2015 17:45 26,1 C 39 % 1017,7 hPa 0,0 l/m 1,4 km/h (1 Bft) NW 317 5 min 0,000 mm 2,0 UV-I 786 W/m 11,0 C 26,1 C 4,0 km/h (1 Bft) 0,00 %
29.06.2015 17:50 26,1 C 39 % 1017,6 hPa 0,0 l/m 0,0 km/h (0 Bft) N 11 5 min 0,000 mm 2,0 UV-I 772 W/m 11,0 C 26,1 C 0,0 km/h (0 Bft) 0,00 %
29.06.2015 17:55 26,1 C 39 % 1017,6 hPa 0,0 l/m 2,2 km/h (1 Bft) W 276 5 min 0,000 mm 1,0 UV-I 771 W/m 11,0 C 26,1 C 4,0 km/h (1 Bft) 0,00 %
29.06.2015 18:00 25,9 C 39 % 1017,7 hPa 0,0 l/m 2,9 km/h (1 Bft) NW 308 5 min 0,000 mm 1,0 UV-I 709 W/m 10,9 C 25,9 C 4,0 km/h (1 Bft) 0,00 %
29.06.2015 18:05 25,6 C 41 % 1017,5 hPa 0,0 l/m 0,0 km/h (0 Bft) NO 51 5 min 0,000 mm 1,0 UV-I 711 W/m 11,4 C 25,6 C 0,0 km/h (0 Bft) 0,00 %
29.06.2015 18:10 25,7 C 39 % 1017,6 hPa 0,0 l/m 1,8 km/h (1 Bft) N 6 5 min 0,000 mm 1,0 UV-I 671 W/m 10,7 C 25,7 C 4,0 km/h (1 Bft) 0,00 %
29.06.2015 18:15 25,8 C 40 % 1017,6 hPa 0,0 l/m 0,4 km/h (0 Bft) N-NW 342 5 min 0,000 mm 1,0 UV-I 677 W/m 11,2 C 25,8 C 4,0 km/h (1 Bft) 0,00 %
29.06.2015 18:20 25,7 C 39 % 1017,6 hPa 0,0 l/m 0,0 km/h (0 Bft) N-NO 24 5 min 0,000 mm 1,0 UV-I 639 W/m 10,7 C 25,7 C 0,0 km/h (0 Bft) 0,00 %
29.06.2015 18:25 25,8 C 40 % 1017,7 hPa 0,0 l/m 0,0 km/h (0 Bft) O-NO 61 5 min 0,000 mm 1,0 UV-I 621 W/m 11,2 C 25,8 C 0,0 km/h (0 Bft) 0,00 %
29.06.2015 18:30 25,8 C 40 % 1017,6 hPa 0,0 l/m 0,4 km/h (0 Bft) NO 41 5 min 0,000 mm 1,0 UV-I 642 W/m 11,2 C 25,8 C 4,0 km/h (1 Bft) 0,00 %
29.06.2015 18:35 25,4 C 41 % 1017,8 hPa 0,0 l/m 0,0 km/h (0 Bft) N-NW 342 5 min 0,000 mm 1,0 UV-I 602 W/m 11,2 C 25,4 C 0,0 km/h (0 Bft) 0,00 %
29.06.2015 18:40 25,3 C 43 % 1017,8 hPa 0,0 l/m 0,0 km/h (0 Bft) O-NO 75 5 min 0,000 mm 1,0 UV-I 578 W/m 11,8 C 25,3 C 0,0 km/h (0 Bft) 0,00 %
29.06.2015 18:45 25,4 C 41 % 1017,8 hPa 0,0 l/m 0,4 km/h (0 Bft) N 7 5 min 0,000 mm 1,0 UV-I 553 W/m 11,2 C 25,4 C 4,0 km/h (1 Bft) 0,00 %
29.06.2015 18:50 25,3 C 40 % 1017,9 hPa 0,0 l/m 1,4 km/h (1 Bft) N 4 5 min 0,000 mm 1,0 UV-I 565 W/m 10,7 C 25,3 C 4,0 km/h (1 Bft) 0,00 %
29.06.2015 18:55 24,9 C 43 % 1017,9 hPa 0,0 l/m 0,0 km/h (0 Bft) O-NO 76 5 min 0,000 mm 1,0 UV-I 541 W/m 11,4 C 24,9 C 0,0 km/h (0 Bft) 0,00 %
29.06.2015 19:00 24,6 C 43 % 1018,2 hPa 0,0 l/m 0,0 km/h (0 Bft) NO 54 5 min 0,000 mm 1,0 UV-I 506 W/m 11,2 C 24,6 C 0,0 km/h (0 Bft) 0,00 %
29.06.2015 19:05 24,5 C 43 % 1018,0 hPa 0,0 l/m 4,0 km/h (1 Bft) N-NW 334 5 min 0,000 mm 1,0 UV-I 467 W/m 11,1 C 24,5 C 7,9 km/h (2 Bft) 0,00 %
29.06.2015 19:10 24,4 C 44 % 1018,0 hPa 0,0 l/m 0,7 km/h (0 Bft) NO 36 5 min 0,000 mm 1,0 UV-I 291 W/m 11,3 C 24,4 C 4,0 km/h (1 Bft) 0,00 %
29.06.2015 19:15 24,3 C 44 % 1017,9 hPa 0,0 l/m 2,2 km/h (1 Bft) N 354 5 min 0,000 mm 1,0 UV-I 242 W/m 11,3 C 24,3 C 4,0 km/h (1 Bft) 0,00 %
29.06.2015 19:20 24,3 C 44 % 1018,1 hPa 0,0 l/m 0,0 km/h (0 Bft) N 349 5 min 0,000 mm 1,0 UV-I 358 W/m 11,3 C 24,3 C 0,0 km/h (0 Bft) 0,00 %
29.06.2015 19:25 24,2 C 45 % 1018,1 hPa 0,0 l/m 0,0 km/h (0 Bft) N-NO 24 5 min 0,000 mm 1,0 UV-I 349 W/m 11,5 C 24,2 C 0,0 km/h (0 Bft) 0,00 %
29.06.2015 19:30 24,1 C 46 % 1018,1 hPa 0,0 l/m 0,4 km/h (0 Bft) SO 140 5 min 0,000 mm 1,0 UV-I 360 W/m 11,7 C 24,1 C 4,0 km/h (1 Bft) 0,00 %
29.06.2015 19:35 23,8 C 46 % 1018,2 hPa 0,0 l/m 0,0 km/h (0 Bft) N-NW 345 5 min 0,000 mm 1,0 UV-I 347 W/m 11,5 C 23,8 C 0,0 km/h (0 Bft) 0,00 %
29.06.2015 19:40 23,8 C 46 % 1018,2 hPa 0,0 l/m 0,0 km/h (0 Bft) N-NO 30 5 min 0,000 mm 1,0 UV-I 315 W/m 11,5 C 23,8 C 0,0 km/h (0 Bft) 0,00 %
29.06.2015 19:45 23,9 C 45 % 1018,2 hPa 0,0 l/m 1,8 km/h (1 Bft) N-NW 348 5 min 0,000 mm 0,0 UV-I 285 W/m 11,2 C 23,9 C 4,0 km/h (1 Bft) 0,00 %
29.06.2015 19:50 24,0 C 45 % 1018,4 hPa 0,0 l/m 3,2 km/h (1 Bft) N-NW 339 5 min 0,000 mm 0,0 UV-I 241 W/m 11,3 C 24,0 C 4,0 km/h (1 Bft) 0,00 %
29.06.2015 19:55 24,1 C 44 % 1018,3 hPa 0,0 l/m 0,0 km/h (0 Bft) N 351 5 min 0,000 mm 0,0 UV-I 208 W/m 11,1 C 24,1 C 0,0 km/h (0 Bft) 0,00 %
29.06.2015 20:00 24,2 C 44 % 1018,4 hPa 0,0 l/m 0,0 km/h (0 Bft) N-NW 348 5 min 0,000 mm 0,0 UV-I 182 W/m 11,2 C 24,2 C 0,0 km/h (0 Bft) 0,00 %
29.06.2015 20:05 24,3 C 44 % 1018,3 hPa 0,0 l/m 0,0 km/h (0 Bft) NO 47 5 min 0,000 mm 0,0 UV-I 145 W/m 11,3 C 24,3 C 0,0 km/h (0 Bft) 0,00 %
29.06.2015 20:10 24,2 C 46 % 1018,4 hPa 0,0 l/m 0,0 km/h (0 Bft) N-NO 33 5 min 0,000 mm 0,0 UV-I 105 W/m 11,8 C 24,2 C 0,0 km/h (0 Bft) 0,00 %
29.06.2015 20:15 24,1 C 45 % 1018,5 hPa 0,0 l/m 0,0 km/h (0 Bft) NO 38 0 min 0,000 mm 0,0 UV-I 56 W/m 11,4 C 24,1 C 0,0 km/h (0 Bft) 0,00 %
29.06.2015 20:20 24,1 C 45 % 1018,5 hPa 0,0 l/m 0,0 km/h (0 Bft) NO 42 0 min 0,000 mm 0,0 UV-I 38 W/m 11,4 C 24,1 C 0,0 km/h (0 Bft) 0,00 %
29.06.2015 20:25 24,0 C 44 % 1018,6 hPa 0,0 l/m 0,0 km/h (0 Bft) NO 41 0 min 0,000 mm 0,0 UV-I 27 W/m 11,0 C 24,0 C 0,0 km/h (0 Bft) 0,00 %
29.06.2015 20:30 24,0 C 47 % 1018,5 hPa 0,0 l/m 0,0 km/h (0 Bft) N 11 0 min 0,000 mm 0,0 UV-I 18 W/m 12,0 C 24,0 C 0,0 km/h (0 Bft) 0,00 %
29.06.2015 20:35 23,8 C 48 % 1018,7 hPa 0,0 l/m 0,0 km/h (0 Bft) N-NO 30 0 min 0,000 mm 0,0 UV-I 7 W/m 12,1 C 23,8 C 0,0 km/h (0 Bft) 0,00 %
29.06.2015 20:40 23,5 C 49 % 1018,7 hPa 0,0 l/m 0,0 km/h (0 Bft) NO 51 0 min 0,000 mm 0,0 UV-I 2 W/m 12,2 C 23,5 C 0,0 km/h (0 Bft) 0,00 %
29.06.2015 20:45 23,0 C 53 % 1018,7 hPa 0,0 l/m 0,0 km/h (0 Bft) NO 51 0 min 0,000 mm 0,0 UV-I 0 W/m 12,9 C 23,0 C 0,0 km/h (0 Bft) 0,00 %
29.06.2015 20:50 22,6 C 55 % 1019,0 hPa 0,0 l/m 4,3 km/h (1 Bft) O-SO 103 0 min 0,000 mm 0,0 UV-I 0 W/m 13,1 C 22,6 C 7,9 km/h (2 Bft) 0,00 %
29.06.2015 20:55 21,9 C 59 % 1018,9 hPa 0,0 l/m 4,3 km/h (1 Bft) O-NO 76 0 min 0,000 mm 0,0 UV-I 0 W/m 13,5 C 21,9 C 7,9 km/h (2 Bft) 0,00 %
29.06.2015 21:00 20,9 C 60 % 1019,3 hPa 0,0 l/m 0,0 km/h (0 Bft) NO 55 0 min 0,000 mm 0,0 UV-I 0 W/m 12,8 C 20,9 C 0,0 km/h (0 Bft) 0,00 %
29.06.2015 21:05 20,0 C 62 % 1019,5 hPa 0,0 l/m 0,0 km/h (0 Bft) O-NO 59 0 min 0,000 mm 0,0 UV-I 0 W/m 12,5 C 20,0 C 0,0 km/h (0 Bft) 0,00 %
29.06.2015 21:10 19,5 C 64 % 1019,7 hPa 0,0 l/m 0,4 km/h (0 Bft) O 86 0 min 0,000 mm 0,0 UV-I 0 W/m 12,5 C 19,5 C 4,0 km/h (1 Bft) 0,00 %
29.06.2015 21:15 19,1 C 66 % 1019,8 hPa 0,0 l/m 0,0 km/h (0 Bft) O-NO 69 0 min 0,000 mm 0,0 UV-I 0 W/m 12,6 C 19,1 C 0,0 km/h (0 Bft) 0,00 %
29.06.2015 21:20 18,7 C 65 % 1019,9 hPa 0,0 l/m 1,4 km/h (1 Bft) O-SO 117 0 min 0,000 mm 0,0 UV-I 0 W/m 12,0 C 18,7 C 4,0 km/h (1 Bft) 0,00 %
29.06.2015 21:25 18,5 C 65 % 1020,0 hPa 0,0 l/m 0,0 km/h (0 Bft) NO 54 0 min 0,000 mm 0,0 UV-I 0 W/m 11,8 C 18,5 C 0,0 km/h (0 Bft) 0,00 %
29.06.2015 21:30 18,4 C 67 % 1019,9 hPa 0,0 l/m 0,0 km/h (0 Bft) O-NO 73 0 min 0,000 mm 0,0 UV-I 0 W/m 12,2 C 18,4 C 0,0 km/h (0 Bft) 0,00 %
29.06.2015 21:35 18,2 C 69 % 1020,2 hPa 0,0 l/m 0,0 km/h (0 Bft) O 84 0 min 0,000 mm 0,0 UV-I 0 W/m 12,4 C 18,2 C 0,0 km/h (0 Bft) 0,00 %
29.06.2015 21:40 17,9 C 70 % 1020,4 hPa 0,0 l/m 0,0 km/h (0 Bft) O-SO 105 0 min 0,000 mm 0,0 UV-I 0 W/m 12,3 C 17,9 C 0,0 km/h (0 Bft) 0,00 %
29.06.2015 21:45 17,8 C 70 % 1020,5 hPa 0,0 l/m 0,0 km/h (0 Bft) O-NO 77 0 min 0,000 mm 0,0 UV-I 0 W/m 12,3 C 17,8 C 0,0 km/h (0 Bft) 0,00 %
29.06.2015 21:50 17,7 C 71 % 1020,7 hPa 0,0 l/m 0,0 km/h (0 Bft) NO 45 0 min 0,000 mm 0,0 UV-I 0 W/m 12,4 C 17,7 C 0,0 km/h (0 Bft) 0,00 %
29.06.2015 21:55 17,5 C 69 % 1020,6 hPa 0,0 l/m 3,2 km/h (1 Bft) SO 133 0 min 0,000 mm 0,0 UV-I 0 W/m 11,7 C 17,5 C 4,0 km/h (1 Bft) 0,00 %
29.06.2015 22:00 17,6 C 69 % 1020,7 hPa 0,0 l/m 1,4 km/h (1 Bft) SO 146 0 min 0,000 mm 0,0 UV-I 0 W/m 11,8 C 17,6 C 4,0 km/h (1 Bft) 0,00 %
29.06.2015 22:05 17,7 C 70 % 1020,5 hPa 0,0 l/m 0,0 km/h (0 Bft) O 81 0 min 0,000 mm 0,0 UV-I 0 W/m 12,2 C 17,7 C 0,0 km/h (0 Bft) 0,00 %
29.06.2015 22:10 17,8 C 70 % 1020,6 hPa 0,0 l/m 0,0 km/h (0 Bft) O 79 0 min 0,000 mm 0,0 UV-I 0 W/m 12,3 C 17,8 C 0,0 km/h (0 Bft) 0,00 %
29.06.2015 22:15 17,7 C 70 % 1020,6 hPa 0,0 l/m 2,2 km/h (1 Bft) O-SO 111 0 min 0,000 mm 0,0 UV-I 0 W/m 12,2 C 17,7 C 4,0 km/h (1 Bft) 0,00 %
29.06.2015 22:20 17,6 C 71 % 1020,6 hPa 0,0 l/m 1,4 km/h (1 Bft) O-SO 116 0 min 0,000 mm 0,0 UV-I 0 W/m 12,3 C 17,6 C 4,0 km/h (1 Bft) 0,00 %
29.06.2015 22:25 17,6 C 72 % 1020,6 hPa 0,0 l/m 0,0 km/h (0 Bft) O-NO 58 0 min 0,000 mm 0,0 UV-I 0 W/m 12,5 C 17,6 C 0,0 km/h (0 Bft) 0,00 %
29.06.2015 22:30 17,5 C 72 % 1020,6 hPa 0,0 l/m 0,0 km/h (0 Bft) NO 52 0 min 0,000 mm 0,0 UV-I 0 W/m 12,4 C 17,5 C 0,0 km/h (0 Bft) 0,00 %
29.06.2015 22:35 17,5 C 73 % 1020,8 hPa 0,0 l/m 0,0 km/h (0 Bft) N-NW 333 0 min 0,000 mm 0,0 UV-I 0 W/m 12,6 C 17,5 C 0,0 km/h (0 Bft) 0,00 %
29.06.2015 22:40 17,3 C 73 % 1020,7 hPa 0,0 l/m 0,0 km/h (0 Bft) NO 51 0 min 0,000 mm 0,0 UV-I 0 W/m 12,4 C 17,3 C 0,0 km/h (0 Bft) 0,00 %
29.06.2015 22:45 17,2 C 75 % 1020,9 hPa 0,0 l/m 0,0 km/h (0 Bft) NO 45 0 min 0,000 mm 0,0 UV-I 0 W/m 12,7 C 17,2 C 0,0 km/h (0 Bft) 0,00 %
29.06.2015 22:50 17,1 C 78 % 1020,9 hPa 0,0 l/m 0,0 km/h (0 Bft) NO 54 0 min 0,000 mm 0,0 UV-I 0 W/m 13,2 C 17,1 C 0,0 km/h (0 Bft) 0,00 %
29.06.2015 22:55 16,7 C 78 % 1021,1 hPa 0,0 l/m 0,0 km/h (0 Bft) O 79 0 min 0,000 mm 0,0 UV-I 0 W/m 12,8 C 16,7 C 0,0 km/h (0 Bft) 0,00 %
29.06.2015 23:00 16,4 C 79 % 1021,0 hPa 0,0 l/m 0,0 km/h (0 Bft) NO 54 0 min 0,000 mm 0,0 UV-I 0 W/m 12,7 C 16,4 C 0,0 km/h (0 Bft) 0,00 %
29.06.2015 23:05 16,3 C 79 % 1021,1 hPa 0,0 l/m 0,0 km/h (0 Bft) NO 55 0 min 0,000 mm 0,0 UV-I 0 W/m 12,6 C 16,3 C 0,0 km/h (0 Bft) 0,00 %
29.06.2015 23:10 16,0 C 81 % 1021,0 hPa 0,0 l/m 0,0 km/h (0 Bft) O-NO 64 0 min 0,000 mm 0,0 UV-I 0 W/m 12,7 C 16,0 C 0,0 km/h (0 Bft) 0,00 %
29.06.2015 23:15 15,9 C 81 % 1021,2 hPa 0,0 l/m 0,0 km/h (0 Bft) NO 55 0 min 0,000 mm 0,0 UV-I 0 W/m 12,6 C 15,9 C 0,0 km/h (0 Bft) 0,00 %
29.06.2015 23:20 15,8 C 81 % 1021,1 hPa 0,0 l/m 0,0 km/h (0 Bft) O-NO 61 0 min 0,000 mm 0,0 UV-I 0 W/m 12,5 C 15,8 C 0,0 km/h (0 Bft) 0,00 %
29.06.2015 23:25 15,7 C 81 % 1021,3 hPa 0,0 l/m 0,0 km/h (0 Bft) N 353 0 min 0,000 mm 0,0 UV-I 0 W/m 12,4 C 15,7 C 0,0 km/h (0 Bft) 0,00 %
29.06.2015 23:30 15,7 C 82 % 1021,2 hPa 0,0 l/m 0,0 km/h (0 Bft) NO 46 0 min 0,000 mm 0,0 UV-I 0 W/m 12,6 C 15,7 C 0,0 km/h (0 Bft) 0,00 %
29.06.2015 23:35 15,6 C 83 % 1021,2 hPa 0,0 l/m 0,0 km/h (0 Bft) NO 44 0 min 0,000 mm 0,0 UV-I 0 W/m 12,7 C 15,6 C 0,0 km/h (0 Bft) 0,00 %
29.06.2015 23:40 15,5 C 83 % 1021,0 hPa 0,0 l/m 0,0 km/h (0 Bft) NO 38 0 min 0,000 mm 0,0 UV-I 0 W/m 12,6 C 15,5 C 0,0 km/h (0 Bft) 0,00 %
29.06.2015 23:45 15,3 C 83 % 1021,2 hPa 0,0 l/m 0,0 km/h (0 Bft) NO 41 0 min 0,000 mm 0,0 UV-I 0 W/m 12,4 C 15,3 C 0,0 km/h (0 Bft) 0,00 %
29.06.2015 23:50 15,2 C 83 % 1021,2 hPa 0,0 l/m 0,0 km/h (0 Bft) NO 45 0 min 0,000 mm 0,0 UV-I 0 W/m 12,3 C 15,2 C 0,0 km/h (0 Bft) 0,00 %
29.06.2015 23:55 15,0 C 84 % 1021,2 hPa 0,0 l/m 0,0 km/h (0 Bft) NO 46 0 min 0,000 mm 0,0 UV-I 0 W/m 12,3 C 15,0 C 0,0 km/h (0 Bft) 0,00 %
_ Min-Zeit 05:10 16:20 17:20 - 00:00 - - - - - - 16:20 05:10 00:00 00:00
Minimum _ 11,9 C 36 % 1017,5 hPa - 0,0 km/h (0 Bft) - - - - - - 9,6 C 11,9 C 0,0 km/h (0 Bft) 0,00 %
_ Max-Zeit 17:45 05:40 09:50 00:00 13:50 - - 10:05 00:00 12:35 12:55 20:55 17:45 11:55 00:00
Maximum _ 26,1 C 96 % 1022,2 hPa 0,0 l/m 5,4 km/h
W-NW (1 Bft)
- - 5 min 0,000 mm 6,0 UV-I 1100 W/m 13,5 C 26,1 C 7,9 km/h
W-NW (2 Bft)
0,00 %
Durchschnitt _ 18,6 C 68 % 1020,3 hPa #0,0 l/m 0,3 km/h (0 Bft) N-NW - #9:45 h #0,000 mm 2,7 UV-I 495 W/m 11,6 C 18,6 C 0,9 km/h (0 Bft) 0,00 %